Simultaneous Nadir Overpasses (SNOs) Predictions

Prediction of SNOs between METOP-A and TERRA Satellite Orbit:

Table of predicted SNOs for the next 14.0 days since TLE Epoch: 10/17/2020
Index Date (METOP-A) Time (METOP-A) Lat,Lon (METOP-A) SZA (METOP-A ) Date (TERRA) Time (TERRA) Lat,Lon (TERRA) SZA (TERRA ) Distance(km) Time Diff (sec)
1 10/17/2020 05:07:23 81.38, 151.67 94.05 10/17/2020 05:07:54 81.38, 151.74 94.08 1.23 31
2 10/17/2020 05:58:03 -81.37, -40.74 85.91 10/17/2020 05:57:21 -81.38, -40.73 85.93 0.59 42
3 10/20/2020 00:41:45 81.38,-141.91 95.08 10/20/2020 00:42:08 81.37,-142.00 95.08 1.58 23
4 10/20/2020 01:32:25 -81.37, 25.69 84.89 10/20/2020 01:31:35 -81.37, 25.56 84.93 2.14 50
5 10/22/2020 20:16:08 81.38, -75.51 96.08 10/22/2020 20:16:22 81.38, -75.40 96.10 1.98 14
6 10/22/2020 21:06:48 -81.37, 92.10 83.89 10/22/2020 21:05:49 -81.38, 92.19 83.90 2.01 59
7 10/25/2020 15:50:31 81.38, -9.13 97.05 10/25/2020 15:50:37 81.37, -9.22 97.04 1.68 6
8 10/25/2020 16:41:11 -81.37, 158.49 82.91 10/25/2020 16:40:04 -81.37, 158.40 82.95 1.52 67
9 10/28/2020 10:34:14 -81.38,-110.42 82.05 10/28/2020 10:35:25 -81.37,-110.35 82.02 1.71 71
10 10/28/2020 11:24:53 81.38, 57.23 98.00 10/28/2020 11:24:50 81.37, 57.30 98.00 1.23 3
